| time (UTC) | temp F | wind direction | speed MPH | gust MPH | rain 1hr in | rain 24hr in | rain mn in | humidity % | barometer mb |
| 20260902125035 | 57 | 171 | 0.0 | 0.0 | 0.00 | 0.00 | 0.00 | 74 | 1014.8 |
| 20260902124839 | 57 | 172 | 0.0 | 0.0 | 0.00 | 0.00 | 0.00 | 73 | 1014.8 |
| 20260902123533 | 57 | 172 | 0.0 | 0.0 | 0.00 | 0.00 | 0.00 | 73 | 1014.7 |
| 20260902123322 | 57 | 171 | 0.0 | 0.0 | 0.00 | 0.00 | 0.00 | 73 | 1014.7 |
| 20260902122022 | 57 | 172 | 0.0 | 0.0 | 0.00 | 0.00 | 0.00 | 73 | 1014.7 |
| 20260902121828 | 57 | 172 | 0.0 | 0.0 | 0.00 | 0.00 | 0.00 | 72 | 1014.7 |
| 20260902120525 | 57 | 172 | 0.0 | 0.0 | 0.00 | 0.00 | 0.00 | 73 | 1014.7 |
| 20260902120331 | 57 | 172 | 0.0 | 0.0 | 0.00 | 0.00 | 0.00 | 73 | 1014.7 |
| 20260902115025 | 57 | 172 | 0.0 | 0.0 | 0.00 | 0.00 | 0.00 | 73 | 1014.9 |
| 20260902114855 | 57 | 172 | 0.0 | 0.0 | 0.00 | 0.00 | 0.00 | 73 | 1014.9 |
| 20260902113531 | 57 | 172 | 0.0 | 0.0 | 0.00 | 0.00 | 0.00 | 73 | 1015.2 |
| 20260902113337 | 57 | 173 | 0.0 | 0.0 | 0.00 | 0.00 | 0.00 | 73 | 1015.2 |
| 20260902112029 | 57 | 173 | 0.0 | 0.0 | 0.00 | 0.00 | 0.00 | 73 | 1015.2 |
| 20260902111833 | 57 | 173 | 0.0 | 0.0 | 0.00 | 0.00 | 0.00 | 73 | 1015.2 |
| 20260902110530 | 56 | 173 | 0.0 | 0.0 | 0.00 | 0.00 | 0.00 | 73 | 1015.2 |
| 20260902110339 | 56 | 173 | 0.0 | 0.0 | 0.00 | 0.00 | 0.00 | 73 | 1015.2 |
| 20260902105033 | 56 | 176 | 0.0 | 0.0 | 0.00 | 0.00 | 0.00 | 73 | 1015.1 |
| 20260902104818 | 56 | 176 | 0.0 | 0.0 | 0.00 | 0.00 | 0.00 | 73 | 1015.1 |
| 20260902103517 | 57 | 178 | 0.0 | 0.0 | 0.00 | 0.00 | 0.00 | 72 | 1015.2 |
| 20260902103329 | 57 | 178 | 0.0 | 0.0 | 0.00 | 0.00 | 0.00 | 72 | 1015.2 |
| 20260902102027 | 57 | 178 | 0.0 | 0.0 | 0.00 | 0.00 | 0.00 | 71 | 1015.2 |
| 20260902101832 | 57 | 178 | 0.0 | 0.0 | 0.00 | 0.00 | 0.00 | 70 | 1015.2 |
| 20260902100527 | 57 | 178 | 0.0 | 0.0 | 0.00 | 0.00 | 0.00 | 70 | 1015.2 |
| 20260902100332 | 57 | 178 | 0.0 | 0.0 | 0.00 | 0.00 | 0.00 | 70 | 1015.2 |
| 20260902095025 | 57 | 178 | 0.0 | 0.0 | 0.00 | 0.00 | 0.00 | 70 | 1015.1 |
| 20260902094834 | 57 | 178 | 0.0 | 0.0 | 0.00 | 0.00 | 0.00 | 70 | 1015.1 |
| 20260902093531 | 57 | 178 | 0.0 | 0.0 | 0.00 | 0.00 | 0.00 | 70 | 1015.2 |
| 20260902093357 | 57 | 178 | 0.0 | 0.0 | 0.00 | 0.00 | 0.00 | 70 | 1015.2 |
| 20260902092031 | 57 | 178 | 0.0 | 0.0 | 0.00 | 0.00 | 0.00 | 71 | 1015.2 |
| 20260902091837 | 57 | 178 | 0.0 | 0.0 | 0.00 | 0.00 | 0.00 | 71 | 1015.2 |
| 20260902090531 | 57 | 178 | 0.0 | 0.0 | 0.00 | 0.00 | 0.00 | 69 | 1015.2 |
| 20260902090321 | 57 | 178 | 0.0 | 0.0 | 0.00 | 0.00 | 0.00 | 69 | 1015.2 |
| 20260902085036 | 57 | 178 | 0.0 | 0.0 | 0.00 | 0.00 | 0.00 | 69 | 1015.2 |
| 20260902084823 | 57 | 178 | 0.0 | 0.0 | 0.00 | 0.00 | 0.00 | 69 | 1015.2 |
| 20260902083557 | 57 | 178 | 0.0 | 0.0 | 0.00 | 0.00 | 0.00 | 69 | 1015.1 |
| 20260902083322 | 57 | 178 | 0.0 | 0.0 | 0.00 | 0.00 | 0.00 | 69 | 1015.1 |
| 20260902082037 | 58 | 178 | 0.0 | 0.0 | 0.00 | 0.00 | 0.00 | 69 | 1015.2 |
| 20260902081826 | 58 | 178 | 0.0 | 0.0 | 0.00 | 0.00 | 0.00 | 69 | 1015.2 |
| 20260902080527 | 58 | 178 | 0.0 | 0.0 | 0.00 | 0.00 | 0.00 | 68 | 1015.2 |
| 20260902080354 | 58 | 178 | 0.0 | 0.0 | 0.00 | 0.00 | 0.00 | 68 | 1015.2 |
| 20260902075050 | 58 | 178 | 0.0 | 0.0 | 0.00 | 0.00 | 0.00 | 67 | 1015.2 |
| 20260902074817 | 58 | 178 | 0.0 | 0.0 | 0.00 | 0.00 | 0.00 | 67 | 1015.2 |
| 20260902073534 | 59 | 178 | 0.0 | 0.0 | 0.00 | 0.00 | 0.00 | 66 | 1015.2 |
| 20260902073322 | 59 | 178 | 0.0 | 0.0 | 0.00 | 0.00 | 0.00 | 66 | 1015.2 |
| 20260902072037 | 59 | 178 | 0.0 | 0.0 | 0.00 | 0.00 | 0.00 | 65 | 1015.3 |
| 20260902071821 | 60 | 178 | 0.0 | 0.0 | 0.00 | 0.00 | 0.00 | 65 | 1015.3 |
| 20260902070519 | 60 | 178 | 0.0 | 0.0 | 0.00 | 0.00 | 0.00 | 64 | 1015.2 |
| 20260902070327 | 60 | 178 | 0.0 | 0.0 | 0.00 | 0.00 | 0.00 | 64 | 1015.2 |
| 20260902065022 | 60 | 178 | 0.0 | 0.0 | 0.00 | 0.00 | 0.00 | 63 | 1015.1 |
| 20260902064847 | 60 | 178 | 0.0 | 0.0 | 0.00 | 0.00 | 0.00 | 63 | 1015.1 |
| 20260902063521 | 61 | 178 | 0.0 | 0.0 | 0.00 | 0.00 | 0.00 | 62 | 1015.2 |
| 20260902063326 | 61 | 178 | 0.0 | 0.0 | 0.00 | 0.00 | 0.00 | 62 | 1015.2 |
| 20260902062023 | 61 | 178 | 0.0 | 0.0 | 0.00 | 0.00 | 0.00 | 61 | 1015.2 |
| 20260902061852 | 61 | 178 | 0.0 | 0.0 | 0.00 | 0.00 | 0.00 | 60 | 1015.2 |
| 20260902060528 | 61 | 248 | 0.0 | 0.0 | 0.00 | 0.00 | 0.00 | 59 | 1015.3 |
| 20260902060335 | 61 | 248 | 0.0 | 0.0 | 0.00 | 0.00 | 0.00 | 58 | 1015.3 |
| 20260902055033 | 62 | 248 | 0.0 | 0.0 | 0.00 | 0.00 | 0.00 | 57 | 1015.6 |
| 20260902054839 | 62 | 248 | 0.0 | 0.0 | 0.00 | 0.00 | 0.00 | 57 | 1015.6 |
| 20260902053533 | 62 | 249 | 0.0 | 0.0 | 0.00 | 0.00 | 0.00 | 57 | 1015.7 |
| 20260902053323 | 62 | 249 | 0.0 | 0.0 | 0.00 | 0.00 | 0.00 | 57 | 1015.7 |
| 20260902052020 | 62 | 249 | 0.0 | 0.0 | 0.00 | 0.00 | 0.00 | 57 | 1015.7 |
| 20260902051826 | 62 | 249 | 0.0 | 0.0 | 0.00 | 0.00 | 0.00 | 57 | 1015.7 |
| 20260902050523 | 62 | 249 | 0.0 | 0.0 | 0.00 | 0.00 | 0.00 | 57 | 1015.6 |
| 20260902050332 | 63 | 249 | 0.0 | 0.0 | 0.00 | 0.00 | 0.00 | 56 | 1015.6 |
| 20260902045026 | 63 | 249 | 0.0 | 0.0 | 0.00 | 0.00 | 0.00 | 55 | 1015.7 |
| 20260902044831 | 63 | 249 | 0.0 | 0.0 | 0.00 | 0.00 | 0.00 | 54 | 1015.7 |
| 20260902043525 | 64 | 249 | 0.0 | 0.0 | 0.00 | 0.00 | 0.00 | 53 | 1015.6 |
| 20260902043332 | 64 | 249 | 0.0 | 0.0 | 0.00 | 0.00 | 0.00 | 53 | 1015.6 |
| 20260902042047 | 65 | 249 | 0.0 | 0.0 | 0.00 | 0.00 | 0.00 | 52 | 1015.4 |
| 20260902041834 | 65 | 249 | 0.0 | 0.0 | 0.00 | 0.00 | 0.00 | 52 | 1015.4 |
| 20260902040527 | 65 | 249 | 0.0 | 0.0 | 0.00 | 0.00 | 0.00 | 51 | 1015.1 |
| 20260902040335 | 65 | 249 | 0.0 | 0.0 | 0.00 | 0.00 | 0.00 | 51 | 1015.1 |
| 20260902035028 | 66 | 249 | 0.0 | 0.0 | 0.00 | 0.00 | 0.00 | 50 | 1015.0 |
| 20260902034832 | 66 | 249 | 0.0 | 0.0 | 0.00 | 0.00 | 0.00 | 49 | 1015.0 |
| 20260902033525 | 66 | 249 | 0.0 | 0.0 | 0.00 | 0.00 | 0.00 | 49 | 1014.7 |
| 20260902033335 | 66 | 249 | 0.0 | 0.0 | 0.00 | 0.00 | 0.00 | 49 | 1014.7 |
| 20260902032027 | 66 | 249 | 1.0 | 0.0 | 0.00 | 0.00 | 0.00 | 48 | 1014.6 |
| 20260902031832 | 66 | 249 | 1.0 | 0.0 | 0.00 | 0.00 | 0.00 | 48 | 1014.6 |
| 20260902030526 | 67 | 200 | 0.0 | 0.0 | 0.00 | 0.00 | 0.00 | 48 | 1014.5 |
| 20260902030333 | 67 | 198 | 0.0 | 0.0 | 0.00 | 0.00 | 0.00 | 48 | 1014.5 |
| 20260902025025 | 67 | 232 | 0.0 | 0.0 | 0.00 | 0.00 | 0.00 | 47 | 1014.3 |
| 20260902024833 | 68 | 254 | 0.0 | 0.0 | 0.00 | 0.00 | 0.00 | 47 | 1014.3 |
| 20260902023527 | 68 | 246 | 1.0 | 0.0 | 0.00 | 0.00 | 0.00 | 45 | 1014.1 |
| 20260902023333 | 69 | 247 | 1.0 | 0.0 | 0.00 | 0.00 | 0.00 | 45 | 1014.1 |
| 20260902022048 | 70 | 255 | 0.0 | 0.0 | 0.00 | 0.00 | 0.00 | 42 | 1014.0 |
| 20260902021832 | 70 | 259 | 0.0 | 0.0 | 0.00 | 0.00 | 0.00 | 42 | 1014.0 |
| 20260902020525 | 72 | 259 | 0.0 | 0.0 | 0.00 | 0.00 | 0.00 | 41 | 1013.9 |
| 20260902020335 | 72 | 259 | 0.0 | 0.0 | 0.00 | 0.00 | 0.00 | 41 | 1013.9 |
| 20260902015027 | 72 | 250 | 2.0 | 0.0 | 0.00 | 0.00 | 0.00 | 38 | 1013.7 |
| 20260902014836 | 72 | 250 | 2.0 | 0.0 | 0.00 | 0.00 | 0.00 | 38 | 1013.7 |
| 20260902013530 | 72 | 360 | 0.0 | 0.0 | 0.00 | 0.00 | 0.00 | 40 | 1013.8 |
| 20260902013340 | 72 | 27 | 0.0 | 0.0 | 0.00 | 0.00 | 0.00 | 40 | 1013.8 |
| 20260902012055 | 71 | 338 | 1.0 | 0.0 | 0.00 | 0.00 | 0.00 | 42 | 1013.7 |
| 20260902011822 | 71 | 351 | 1.0 | 0.0 | 0.00 | 0.00 | 0.00 | 42 | 1013.7 |
| 20260902010539 | 72 | 360 | 1.0 | 0.0 | 0.00 | 0.00 | 0.00 | 41 | 1013.6 |
| 20260902010341 | 72 | 277 | 0.0 | 0.0 | 0.00 | 0.00 | 0.00 | 41 | 1013.6 |
| 20260902005037 | 73 | 306 | 1.0 | 0.0 | 0.00 | 0.00 | 0.00 | 39 | 1013.6 |
| 20260902004826 | 73 | 10 | 1.0 | 0.0 | 0.00 | 0.00 | 0.00 | 39 | 1013.6 |
| 20260902003520 | 75 | 336 | 1.0 | 0.0 | 0.00 | 0.00 | 0.00 | 37 | 1013.6 |
| 20260902003328 | 75 | 302 | 1.0 | 0.0 | 0.00 | 0.00 | 0.00 | 37 | 1013.6 |
| 20260902002022 | 74 | 300 | 0.0 | 0.0 | 0.00 | 0.00 | 0.00 | 38 | 1013.6 |
| 20260902001827 | 74 | 309 | 0.0 | 0.0 | 0.00 | 0.00 | 0.00 | 38 | 1013.6 |
| 20260902000526 | 76 | 315 | 0.0 | 0.0 | 0.00 | 0.00 | 0.00 | 36 | 1013.7 |
| 20260902000337 | 76 | 315 | 0.0 | 0.0 | 0.00 | 0.00 | 0.00 | 36 | 1013.7 |
| 20260901235028 | 77 | 332 | 1.0 | 0.0 | 0.00 | 0.00 | 0.00 | 35 | 1013.7 |
| 20260901234833 | 77 | 263 | 1.0 | 0.0 | 0.00 | 0.00 | 0.00 | 35 | 1013.7 |
| 20260901233527 | 78 | 351 | 0.0 | 0.0 | 0.00 | 0.00 | 0.00 | 35 | 1013.7 |
| 20260901233336 | 78 | 310 | 0.0 | 0.0 | 0.00 | 0.00 | 0.00 | 34 | 1013.7 |
| 20260901232028 | 79 | 19 | 0.0 | 0.0 | 0.00 | 0.00 | 0.00 | 34 | 1013.7 |
| 20260901231816 | 78 | 11 | 1.0 | 0.0 | 0.00 | 0.00 | 0.00 | 35 | 1013.7 |
| 20260901230535 | 79 | 15 | 0.0 | 0.0 | 0.00 | 0.00 | 0.00 | 35 | 1013.7 |
| 20260901230341 | 79 | 15 | 0.0 | 0.0 | 0.00 | 0.00 | 0.00 | 33 | 1013.7 |
| 20260901225035 | 78 | 341 | 1.0 | 0.0 | 0.00 | 0.00 | 0.00 | 35 | 1013.6 |
| 20260901224823 | 78 | 317 | 0.0 | 0.0 | 0.00 | 0.00 | 0.00 | 35 | 1013.6 |
| 20260901223519 | 77 | 310 | 1.0 | 0.0 | 0.00 | 0.00 | 0.00 | 36 | 1013.7 |
| 20260901223326 | 77 | 291 | 1.0 | 0.0 | 0.00 | 0.00 | 0.00 | 35 | 1013.7 |
| 20260901222023 | 77 | 288 | 1.0 | 0.0 | 0.00 | 0.00 | 0.00 | 35 | 1013.7 |
| 20260901221829 | 78 | 250 | 1.0 | 0.0 | 0.00 | 0.00 | 0.00 | 33 | 1013.7 |
| 20260901220543 | 77 | 272 | 1.0 | 0.0 | 0.00 | 0.00 | 0.00 | 35 | 1013.8 |
| 20260901220336 | 77 | 275 | 1.0 | 0.0 | 0.00 | 0.00 | 0.00 | 34 | 1013.8 |
| 20260901215050 | 78 | 321 | 1.0 | 0.0 | 0.00 | 0.00 | 0.00 | 35 | 1013.8 |
| 20260901214835 | 77 | 360 | 1.0 | 0.0 | 0.00 | 0.00 | 0.00 | 37 | 1013.8 |
| 20260901213526 | 76 | 71 | 1.0 | 0.0 | 0.00 | 0.00 | 0.00 | 35 | 1013.9 |
| 20260901213333 | 76 | 71 | 1.0 | 0.0 | 0.00 | 0.00 | 0.00 | 36 | 1013.9 |
| 20260901212030 | 76 | 249 | 1.0 | 0.0 | 0.00 | 0.00 | 0.00 | 35 | 1013.9 |
| 20260901211818 | 76 | 251 | 0.0 | 0.0 | 0.00 | 0.00 | 0.00 | 37 | 1013.9 |
| 20260901210519 | 76 | 294 | 0.0 | 0.0 | 0.00 | 0.00 | 0.00 | 35 | 1014.1 |
| 20260901210324 | 76 | 294 | 0.0 | 0.0 | 0.00 | 0.00 | 0.00 | 34 | 1014.1 |
| 20260901205024 | 77 | 19 | 0.0 | 0.0 | 0.00 | 0.00 | 0.00 | 33 | 1014.1 |
| 20260901204832 | 76 | 14 | 0.0 | 0.0 | 0.00 | 0.00 | 0.00 | 33 | 1014.1 |
| 20260901203525 | 76 | 35 | 1.0 | 0.0 | 0.00 | 0.00 | 0.00 | 34 | 1014.2 |
| 20260901203334 | 76 | 360 | 1.0 | 0.0 | 0.00 | 0.00 | 0.00 | 35 | 1014.2 |
| 20260901202031 | 75 | 336 | 0.0 | 0.0 | 0.00 | 0.00 | 0.00 | 36 | 1014.5 |
| 20260901201837 | 75 | 305 | 0.0 | 0.0 | 0.00 | 0.00 | 0.00 | 36 | 1014.5 |
| 20260901200531 | 74 | 51 | 1.0 | 0.0 | 0.00 | 0.00 | 0.00 | 36 | 1014.6 |
| 20260901200341 | 74 | 49 | 2.0 | 0.0 | 0.00 | 0.00 | 0.00 | 36 | 1014.6 |
| 20260901195035 | 75 | 293 | 0.0 | 0.0 | 0.00 | 0.00 | 0.00 | 36 | 1014.7 |
| 20260901194840 | 74 | 36 | 0.0 | 0.0 | 0.00 | 0.00 | 0.00 | 35 | 1014.7 |
| 20260901193532 | 74 | 240 | 1.0 | 0.0 | 0.00 | 0.00 | 0.00 | 36 | 1014.7 |
| 20260901193358 | 74 | 253 | 1.0 | 0.0 | 0.00 | 0.00 | 0.00 | 36 | 1014.7 |
| 20260901192030 | 72 | 234 | 1.0 | 0.0 | 0.00 | 0.00 | 0.00 | 38 | 1015.0 |
| 20260901191838 | 72 | 234 | 2.0 | 0.0 | 0.00 | 0.00 | 0.00 | 38 | 1015.0 |
| 20260901190532 | 71 | 238 | 1.0 | 0.0 | 0.00 | 0.00 | 0.00 | 38 | 1015.1 |
| 20260901190336 | 71 | 238 | 1.0 | 0.0 | 0.00 | 0.00 | 0.00 | 38 | 1015.1 |
| 20260901185051 | 72 | 228 | 0.0 | 0.0 | 0.00 | 0.00 | 0.00 | 37 | 1015.2 |
| 20260901184854 | 73 | 226 | 0.0 | 0.0 | 0.00 | 0.00 | 0.00 | 37 | 1015.2 |
| 20260901183548 | 73 | 298 | 0.0 | 0.0 | 0.00 | 0.00 | 0.00 | 38 | 1015.2 |
| 20260901183335 | 73 | 298 | 0.0 | 0.0 | 0.00 | 0.00 | 0.00 | 37 | 1015.2 |
| 20260901182029 | 72 | 292 | 1.0 | 0.0 | 0.00 | 0.00 | 0.00 | 40 | 1015.2 |
| 20260901181854 | 71 | 17 | 1.0 | 0.0 | 0.00 | 0.00 | 0.00 | 40 | 1015.2 |
| 20260901180533 | 69 | 229 | 1.0 | 0.0 | 0.00 | 0.00 | 0.00 | 41 | 1015.2 |
| 20260901180321 | 69 | 207 | 1.0 | 0.0 | 0.00 | 0.00 | 0.00 | 44 | 1015.2 |
| 20260901175018 | 70 | 195 | 0.0 | 0.0 | 0.00 | 0.00 | 0.00 | 41 | 1015.2 |
| 20260901174828 | 70 | 195 | 0.0 | 0.0 | 0.00 | 0.00 | 0.00 | 40 | 1015.2 |
| 20260901173522 | 68 | 194 | 1.0 | 0.0 | 0.00 | 0.00 | 0.00 | 44 | 1015.1 |
| 20260901173332 | 67 | 194 | 1.0 | 0.0 | 0.00 | 0.00 | 0.00 | 44 | 1015.1 |
| 20260901172025 | 67 | 153 | 1.0 | 0.0 | 0.00 | 0.00 | 0.00 | 44 | 1015.0 |
| 20260901171829 | 67 | 223 | 1.0 | 0.0 | 0.00 | 0.00 | 0.00 | 44 | 1015.0 |
| 20260901170522 | 67 | 138 | 1.0 | 0.0 | 0.00 | 0.00 | 0.00 | 43 | 1014.7 |
| 20260901170330 | 67 | 183 | 0.0 | 0.0 | 0.00 | 0.00 | 0.00 | 45 | 1014.7 |
| 20260901165024 | 66 | 147 | 2.0 | 0.0 | 0.00 | 0.00 | 0.00 | 45 | 1014.8 |
| 20260901164831 | 66 | 190 | 1.0 | 0.0 | 0.00 | 0.00 | 0.00 | 46 | 1014.8 |
| 20260901163529 | 65 | 196 | 0.0 | 0.0 | 0.00 | 0.00 | 0.00 | 49 | 1015.0 |
| 20260901163334 | 65 | 156 | 1.0 | 0.0 | 0.00 | 0.00 | 0.00 | 49 | 1015.0 |
| 20260901162048 | 64 | 227 | 1.0 | 0.0 | 0.00 | 0.00 | 0.00 | 49 | 1014.9 |
| 20260901161836 | 64 | 221 | 1.0 | 0.0 | 0.00 | 0.00 | 0.00 | 49 | 1014.9 |
| 20260901160530 | 64 | 223 | 2.0 | 0.0 | 0.00 | 0.00 | 0.00 | 50 | 1014.6 |
| 20260901160359 | 64 | 222 | 2.0 | 0.0 | 0.00 | 0.00 | 0.00 | 51 | 1014.6 |
| 20260901155031 | 63 | 190 | 1.0 | 0.0 | 0.00 | 0.00 | 0.00 | 52 | 1014.6 |
| 20260901154824 | 63 | 213 | 1.0 | 0.0 | 0.00 | 0.00 | 0.00 | 52 | 1014.6 |
| 20260901153521 | 63 | 208 | 1.0 | 0.0 | 0.00 | 0.00 | 0.00 | 52 | 1014.6 |
| 20260901153345 | 62 | 208 | 0.0 | 0.0 | 0.00 | 0.00 | 0.00 | 53 | 1014.6 |
| 20260901152040 | 62 | 208 | 2.0 | 0.0 | 0.00 | 0.00 | 0.00 | 54 | 1014.4 |
| 20260901151843 | 62 | 208 | 2.0 | 0.0 | 0.00 | 0.00 | 0.00 | 54 | 1014.4 |
| 20260901150519 | 62 | 231 | 2.0 | 0.0 | 0.00 | 0.00 | 0.00 | 55 | 1014.2 |
| 20260901150329 | 62 | 232 | 2.0 | 0.0 | 0.00 | 0.00 | 0.00 | 55 | 1014.2 |
| 20260901145023 | 61 | 238 | 0.0 | 0.0 | 0.00 | 0.00 | 0.00 | 58 | 1014.1 |
| 20260901144831 | 61 | 238 | 0.0 | 0.0 | 0.00 | 0.00 | 0.00 | 58 | 1014.1 |
| 20260901143544 | 61 | 238 | 0.0 | 0.0 | 0.00 | 0.00 | 0.00 | 58 | 1014.1 |
| 20260901143330 | 61 | 238 | 0.0 | 0.0 | 0.00 | 0.00 | 0.00 | 58 | 1014.1 |
| 20260901142044 | 61 | 238 | 0.0 | 0.0 | 0.00 | 0.00 | 0.00 | 58 | 1013.6 |
| 20260901141826 | 61 | 238 | 0.0 | 0.0 | 0.00 | 0.00 | 0.00 | 58 | 1013.6 |
| 20260901140520 | 61 | 238 | 0.0 | 0.0 | 0.00 | 0.00 | 0.00 | 58 | 1013.6 |
| 20260901140332 | 61 | 238 | 0.0 | 0.0 | 0.00 | 0.00 | 0.00 | 58 | 1013.6 |
| 20260901135047 | 61 | 238 | 0.0 | 0.0 | 0.00 | 0.00 | 0.00 | 58 | 1013.4 |
| 20260901134833 | 61 | 238 | 0.0 | 0.0 | 0.00 | 0.00 | 0.00 | 58 | 1013.4 |
| 20260901133531 | 61 | 238 | 1.0 | 0.0 | 0.00 | 0.00 | 0.00 | 58 | 1013.4 |
| 20260901133341 | 61 | 238 | 1.0 | 0.0 | 0.00 | 0.00 | 0.00 | 58 | 1013.4 |
| 20260901132035 | 61 | 238 | 1.0 | 0.0 | 0.00 | 0.00 | 0.00 | 59 | 1013.1 |
| 20260901131825 | 61 | 238 | 1.0 | 0.0 | 0.00 | 0.00 | 0.00 | 59 | 1013.1 |
| 20260901130520 | 61 | 238 | 0.0 | 0.0 | 0.00 | 0.00 | 0.00 | 60 | 1013.1 |
| 20260901130327 | 61 | 238 | 0.0 | 0.0 | 0.00 | 0.00 | 0.00 | 60 | 1013.1 |